[[{"header":{"parameterUnit":"m.s-1","parameterCategory":1,"la1":30.2991,"la2":30.254,"lo1":-89.0895,"lo2":-89.0444,"dy":0.0017,"dx":0.0017,"nx":28,"ny":28,"refTime":"2024-12-31T09:00:00:Z","depth":0,"parameterNumber":2,"parameterNumberName":"U-component_of_WINDS"},"data":[0,0,0,0,0,0,0,0,0,0,0,0,0,0,0,0,0,0,0,0,0,0,0,0,0,0,0,0,0,0,0,0,0,0,0,0,0,0,0,0,0,0,0,0,0,0,0,0,0,0,0,0,0,0,0,0,0,0,-1.4267,-1.4267,0,-1.4312,-1.4312,-1.4313,-1.4226,-1.4223,-1.422,-1.4217,-1.4268,-1.4272,-1.4276,0,0,0,0,0,0,0,0,0,0,0,0,0,-1.4109,-1.4113,-1.4267,-1.4267,-1.4268,-1.4312,-1.4312,-1.4313,-1.4226,-1.4223,-1.4219,-1.4216,-1.4266,-1.4271,-1.4276,0,0,0,0,0,0,0,0,0,0,0,0,0,-1.4169,-1.4114,-1.4267,-1.423,-1.4227,-1.4312,-1.4312,-1.4313,-1.4227,-1.4222,-1.4218,-1.4214,-1.4265,-1.4271,-1.4277,-1.4401,0,0,-1.4295,-1.4298,0,0,0,0,0,0,0,0,-1.4165,-1.4174,-1.4235,-1.4232,-1.4229,-1.4258,-1.4275,-1.4343,-1.4228,-1.4227,-1.4217,-1.4212,-1.4269,-1.4274,-1.4292,-1.4404,-1.4406,-1.4296,-1.43,-1.4302,-1.4304,0,0,0,0,0,0,0,-1.4161,-1.4172,-1.4285,-1.4236,-1.4232,-1.4212,-1.4216,-1.4288,-1.4272,-1.4227,-1.422,-1.4227,-1.4266,-1.4287,-1.4293,-1.4406,-1.4296,-1.4301,-1.4305,-1.4307,-1.4623,-1.4627,0,0,0,0,0,0,-1.4161,-1.4169,-1.4283,-1.4286,-1.4186,-1.4218,-1.4222,-1.4254,-1.4271,-1.4269,-1.423,-1.4222,-1.4278,-1.4286,-1.4294,-1.4442,-1.4302,-1.4308,-1.4311,-1.4618,-1.4624,-1.4629,0,0,0,0,0,0,-1.4158,-1.4172,-1.4282,-1.4226,-1.4238,-1.4226,-1.4262,-1.4257,-1.4277,-1.4273,-1.427,-1.4254,-1.4275,-1.4286,-1.4375,-1.4443,-1.4311,-1.4316,-1.4612,-1.462,-1.4626,-1.4738,0,0,0,0,0,0,-1.4154,-1.4172,-1.4218,-1.4228,-1.4242,-1.4361,-1.4266,-1.4261,-1.4287,-1.4277,-1.4295,-1.4293,-1.4273,-1.4366,-1.4381,-1.4449,-1.4321,-1.4606,-1.4616,-1.4624,-1.4729,-1.4748,-1.4765,0,0,0,0,0,-1.4149,-1.4249,-1.4221,-1.4235,-1.4299,-1.4365,-1.4373,-1.4346,-1.4293,-1.434,-1.4338,-1.4293,-1.4432,-1.4376,-1.4392,-1.4462,-1.4602,-1.4613,-1.4623,-1.472,-1.4745,-1.4765,0,0,0,0,0,0,-1.425,-1.425,-1.4219,-1.4325,-1.4345,-1.435,-1.4409,-1.4372,-1.441,-1.4399,-1.4365,-1.437,-1.4466,-1.4473,-1.4411,-1.4584,-1.4508,-1.4523,-1.4577,-1.46,-1.4618,-1.4615,-1.4326,0,0,0,0,0,-1.4284,-1.4336,-1.4333,-1.4427,-1.4439,-1.4423,-1.445,-1.4427,-1.4448,-1.4457,-1.4461,-1.4484,-1.4533,-1.4566,-1.461,-1.4728,-1.4731,-1.4784,-1.4802,-1.4817,-1.4831,-1.4895,-1.4918,-1.4664,-1.4664,-1.4663,0,0,-1.4356,-1.4362,-1.4398,-1.4448,-1.4461,-1.4518,-1.4431,-1.4494,-1.4536,-1.4467,-1.4552,-1.4555,-1.4579,-1.4683,-1.4729,-1.4691,-1.4902,-1.4831,-1.4843,-1.4849,-1.4908,-1.4932,-1.4954,-1.4671,-1.467,-1.4668,0,0,-1.4517,-1.4526,-1.4606,-1.462,-1.4641,-1.4629,-1.4648,-1.4658,-1.4657,-1.4741,-1.4691,-1.474,-1.4825,-1.4844,-1.4865,-1.5031,-1.4992,-1.5046,-1.5143,-1.5206,-1.5226,-1.5243,-1.5305,-1.5327,-1.5059,-1.5059,-1.5059,0,-1.4605,-1.4687,-1.4652,-1.4718,-1.4742,-1.468,-1.4761,-1.4777,-1.4812,-1.4831,-1.4787,-1.4892,-1.4903,-1.5011,-1.5052,-1.507,-1.5092,-1.5046,-1.5225,-1.5243,-1.5259,-1.5317,-1.534,-1.5066,-1.5065,-1.5065,-1.5064,0,-1.4794,-1.4852,-1.4913,-1.4947,-1.4978,-1.5052,-1.5029,-1.5064,-1.5038,-1.5031,-1.5117,-1.5128,-1.5174,-1.5197,-1.5173,-1.5302,-1.5278,-1.523,-1.5155,-1.529,-1.5344,-1.5366,-1.5076,-1.5073,-1.5071,-1.5069,0,0,-1.5024,-1.5035,-1.5059,-1.5073,-1.5091,-1.5135,-1.5205,-1.5249,-1.5281,-1.5306,-1.5366,-1.5438,-1.5393,-1.5417,-1.5394,-1.5448,-1.5581,-1.5393,-1.5393,-1.543,-1.5726,-1.5764,-1.5791,-1.5553,-1.5557,-1.556,-1.5725,0,-1.5185,-1.5305,-1.5275,-1.5396,-1.5449,-1.5389,-1.5451,-1.5469,-1.5464,-1.5509,-1.5503,-1.5556,-1.5492,-1.5506,-1.5557,-1.5554,-1.564,-1.5541,-1.5611,-1.5614,-1.561,-1.5818,-1.5859,-1.6014,-1.5746,-1.5749,-1.5752,0,-1.539,-1.5422,-1.5547,-1.5555,-1.5576,-1.5633,-1.567,-1.5713,-1.5732,-1.5724,-1.575,-1.5715,-1.5786,-1.5707,-1.5805,-1.5739,-1.5765,-1.5767,-1.5773,-1.5781,-1.5694,-1.5835,-1.6062,-1.6087,-1.5784,-1.5782,-1.5779,0,-1.5547,-1.5621,-1.5706,-1.572,-1.5731,-1.5772,-1.5779,-1.5793,-1.5821,-1.5854,-1.5872,-1.5912,-1.5936,-1.5968,-1.5946,-1.589,-1.6049,-1.5967,-1.6047,-1.6048,-1.6086,-1.6084,-1.6324,-1.6098,-1.6098,-1.6097,-1.6097,0,-1.5732,-1.5812,-1.5777,-1.583,-1.5917,-1.5882,-1.597,-1.597,-1.5983,-1.6035,-1.5985,-1.6036,-1.6002,-1.605,-1.6032,-1.6118,-1.6128,-1.6125,-1.612,-1.6131,-1.6132,-1.6151,-1.614,-1.6103,-1.6102,-1.6101,-1.61,0,-1.5925,-1.5904,-1.5993,-1.5995,-1.5997,-1.6062,-1.6065,-1.6114,-1.6103,-1.6171,-1.6184,-1.6169,-1.6223,-1.6203,-1.626,-1.6248,-1.6358,-1.6337,-1.6352,-1.6347,-1.6429,-1.6422,-1.6691,-1.6725,-1.6475,-1.6477,-1.6479,0,-1.6046,-1.6106,-1.6114,-1.6144,-1.6154,-1.6204,-1.6232,-1.6198,-1.623,-1.6255,-1.6302,-1.635,-1.6388,-1.6477,-1.6472,-1.6516,-1.6498,-1.6588,-1.6504,-1.6514,-1.6502,-1.65,-1.6507,-1.6607,-1.661,-1.6612,-1.6614,0,-1.6264,-1.625,-1.6291,-1.6329,-1.6363,-1.6391,-1.6415,-1.6443,-1.6411,-1.6449,-1.6502,-1.6531,-1.6589,-1.6639,-1.6677,-1.6685,-1.6646,-1.664,-1.6661,-1.6675,-1.6681,-1.6681,-1.6401,-1.6635,-1.6633,-1.6631,-1.663,-1.6629,-1.6426,-1.6476,-1.649,-1.6537,-1.6551,-1.6575,-1.6621,-1.6616,-1.6659,-1.6703,-1.668,-1.6743,-1.676,-1.6807,-1.682,-1.687,-1.6834,-1.6865,-1.6873,-1.6881,-1.6893,-1.6671,-1.6876,-1.6876,-1.6875,-1.6874,-1.6874,0,-1.6643,-1.6648,-1.6692,-1.6726,-1.6764,-1.6719,-1.6744,-1.6779,-1.6834,-1.6852,-1.6889,-1.6951,-1.6999,-1.6996,-1.704,-1.708,-1.7063,-1.7093,-1.7092,-1.7095,-1.6921,-1.6899,-1.7106,-1.7106,-1.7106,-1.7106,-1.7106,-1.7106,-1.6761,-1.6845,-1.6833,-1.6923,-1.6927,-1.6987,-1.7005,-1.7026,-1.704,-1.7111,-1.715,-1.7147,-1.7157,-1.7201,-1.7243,-1.7241,-1.7261,-1.7299,-1.7291,-1.713,-1.7107,-1.7085,-1.7065,-1.7303,-1.7303,-1.7461,-1.7462,-1.7463]},{"header":{"parameterUnit":"m.s-1","parameterCategory":1,"la1":30.2991,"la2":30.254,"lo1":-89.0895,"lo2":-89.0444,"dy":0.0017,"dx":0.0017,"nx":28,"ny":28,"refTime":"2024-12-31T09:00:00:Z","depth":0,"parameterNumber":3,"parameterNumberName":"V-component_of_WINDS"},"data":[0,0,0,0,0,0,0,0,0,0,0,0,0,0,0,0,0,0,0,0,0,0,0,0,0,0,0,0,0,0,0,0,0,0,0,0,0,0,0,0,0,0,0,0,0,0,0,0,0,0,0,0,0,0,0,0,0,0,-3.682,-3.6821,0,-3.6914,-3.6916,-3.6917,-3.6854,-3.6851,-3.6848,-3.6846,-3.6941,-3.6946,-3.6951,0,0,0,0,0,0,0,0,0,0,0,0,0,-3.6582,-3.6587,-3.6819,-3.6821,-3.6822,-3.6914,-3.6916,-3.6917,-3.6855,-3.6851,-3.6848,-3.6844,-3.6939,-3.6945,-3.6952,0,0,0,0,0,0,0,0,0,0,0,0,0,-3.6682,-3.6589,-3.6819,-3.6802,-3.6801,-3.6914,-3.6916,-3.6917,-3.6855,-3.6851,-3.6847,-3.6843,-3.6937,-3.6945,-3.6953,-3.7087,0,0,-3.6976,-3.698,0,0,0,0,0,0,0,0,-3.6677,-3.6691,-3.6803,-3.6803,-3.6803,-3.6868,-3.6867,-3.6974,-3.6856,-3.6835,-3.6846,-3.6841,-3.692,-3.6929,-3.6956,-3.7091,-3.7096,-3.6977,-3.6982,-3.6985,-3.6987,0,0,0,0,0,0,0,-3.667,-3.6686,-3.6857,-3.6805,-3.6805,-3.6789,-3.6798,-3.6887,-3.69,-3.6836,-3.6832,-3.6844,-3.6919,-3.6949,-3.6958,-3.7097,-3.6977,-3.6984,-3.6989,-3.6992,-3.7347,-3.7351,0,0,0,0,0,0,-3.6665,-3.6681,-3.6854,-3.686,-3.6728,-3.6797,-3.6807,-3.6851,-3.6899,-3.6902,-3.6848,-3.6841,-3.6938,-3.6949,-3.6961,-3.7122,-3.6985,-3.6993,-3.6997,-3.7342,-3.7348,-3.7353,0,0,0,0,0,0,-3.666,-3.6681,-3.685,-3.6769,-3.679,-3.6805,-3.6856,-3.6856,-3.6885,-3.6908,-3.691,-3.6876,-3.6935,-3.695,-3.7056,-3.7124,-3.6996,-3.7003,-3.7337,-3.7344,-3.7351,-3.7444,0,0,0,0,0,0,-3.6653,-3.6679,-3.6731,-3.6771,-3.6794,-3.6945,-3.686,-3.6861,-3.6899,-3.6891,-3.6935,-3.6938,-3.6932,-3.7045,-3.7064,-3.7133,-3.7009,-3.7331,-3.734,-3.7348,-3.7435,-3.7454,-3.747,0,0,0,0,0,-3.6645,-3.6753,-3.6734,-3.6755,-3.6859,-3.6949,-3.6962,-3.6954,-3.6905,-3.6957,-3.6971,-3.6936,-3.7114,-3.7056,-3.7077,-3.7149,-3.7326,-3.7337,-3.7348,-3.7427,-3.745,-3.7469,0,0,0,0,0,0,-3.672,-3.6758,-3.6737,-3.6862,-3.6903,-3.6938,-3.7003,-3.6978,-3.7033,-3.7023,-3.7011,-3.7021,-3.7132,-3.7151,-3.7087,-3.7282,-3.7212,-3.7228,-3.7266,-3.7287,-3.7304,-3.7297,-3.7016,0,0,0,0,0,-3.6751,-3.6821,-3.685,-3.6957,-3.6979,-3.6988,-3.7026,-3.7017,-3.7058,-3.7075,-3.7097,-3.7138,-3.7203,-3.7246,-3.7307,-3.7437,-3.7446,-3.7497,-3.7514,-3.7528,-3.7542,-3.7612,-3.7635,-3.7388,-3.7388,-3.7388,0,0,-3.6816,-3.6845,-3.689,-3.6973,-3.7003,-3.7076,-3.7003,-3.7082,-3.7135,-3.7087,-3.7189,-3.7206,-3.7251,-3.737,-3.7424,-3.739,-3.7612,-3.7542,-3.7553,-3.7559,-3.7626,-3.7649,-3.767,-3.7395,-3.7394,-3.7393,0,0,-3.6971,-3.7001,-3.7093,-3.7125,-3.7173,-3.7178,-3.72,-3.724,-3.725,-3.7352,-3.7317,-3.738,-3.7492,-3.7525,-3.7557,-3.7725,-3.7695,-3.7745,-3.7835,-3.7904,-3.7923,-3.794,-3.8001,-3.8022,-3.7758,-3.7759,-3.7759,0,-3.7046,-3.7154,-3.7144,-3.7226,-3.7263,-3.7223,-3.7317,-3.7348,-3.7413,-3.7439,-3.74,-3.754,-3.7567,-3.7694,-3.7735,-3.7762,-3.7786,-3.774,-3.7921,-3.7938,-3.7954,-3.8012,-3.8034,-3.7764,-3.7764,-3.7763,-3.7763,0,-3.7243,-3.7319,-3.7388,-3.7452,-3.7497,-3.7584,-3.7587,-3.7633,-3.762,-3.7629,-3.7733,-3.7765,-3.7832,-3.7861,-3.7848,-3.7985,-3.7963,-3.7923,-3.7853,-3.7984,-3.8037,-3.8059,-3.7773,-3.7771,-3.7769,-3.7767,0,0,-3.7449,-3.7506,-3.7532,-3.7561,-3.761,-3.7668,-3.7753,-3.7819,-3.7859,-3.7905,-3.7976,-3.8072,-3.8035,-3.8071,-3.8062,-3.8122,-3.8253,-3.8075,-3.8075,-3.8107,-3.8407,-3.8437,-3.8463,-3.8234,-3.8238,-3.8241,-3.8403,0,-3.7607,-3.7757,-3.775,-3.789,-3.796,-3.7922,-3.7997,-3.8035,-3.8045,-3.8105,-3.8116,-3.8185,-3.8131,-3.8153,-3.8211,-3.8225,-3.8313,-3.8213,-3.8299,-3.8303,-3.829,-3.849,-3.8523,-3.8674,-3.8424,-3.8427,-3.843,0,-3.7812,-3.7866,-3.8013,-3.8052,-3.8081,-3.8148,-3.8207,-3.8265,-3.8307,-3.8311,-3.8351,-3.8332,-3.8418,-3.8345,-3.8463,-3.8395,-3.843,-3.8442,-3.8448,-3.8456,-3.8375,-3.8504,-3.8722,-3.8745,-3.8463,-3.846,-3.8458,0,-3.7948,-3.8056,-3.8159,-3.8184,-3.8232,-3.828,-3.8302,-3.834,-3.838,-3.8432,-3.8458,-3.8519,-3.8552,-3.86,-3.8597,-3.8545,-3.8717,-3.8644,-3.8722,-3.8722,-3.876,-3.8758,-3.8987,-3.8782,-3.8782,-3.8781,-3.8781,0,-3.8126,-3.8217,-3.822,-3.8283,-3.8385,-3.8375,-3.8476,-3.8493,-3.8527,-3.8592,-3.8563,-3.8624,-3.8617,-3.8679,-3.8677,-3.8775,-3.879,-3.8795,-3.8794,-3.8798,-3.8798,-3.8821,-3.8811,-3.8787,-3.8786,-3.8785,-3.8784,0,-3.8295,-3.83,-3.8409,-3.8446,-3.8457,-3.853,-3.8561,-3.8621,-3.8628,-3.8711,-3.873,-3.8743,-3.8814,-3.8816,-3.8898,-3.8897,-3.9016,-3.9003,-3.9003,-3.9,-3.9078,-3.9071,-3.9331,-3.9365,-3.9137,-3.9139,-3.9141,0,-3.8408,-3.8478,-3.8522,-3.8564,-3.8589,-3.8657,-3.8697,-3.8691,-3.8735,-3.8788,-3.8841,-3.8909,-3.8964,-3.9079,-3.9095,-3.9158,-3.9145,-3.9232,-3.9155,-3.9157,-3.9147,-3.9143,-3.915,-3.9248,-3.925,-3.9252,-3.9254,0,-3.8609,-3.8608,-3.8668,-3.873,-3.878,-3.8828,-3.8873,-3.8908,-3.8907,-3.8957,-3.903,-3.9073,-3.9156,-3.9225,-3.9285,-3.9306,-3.9281,-3.9278,-3.93,-3.9305,-3.9302,-3.9305,-3.9044,-3.9272,-3.927,-3.9269,-3.9268,-3.9267,-3.8754,-3.8814,-3.8855,-3.8923,-3.8956,-3.8998,-3.9056,-3.9071,-3.9132,-3.92,-3.9192,-3.9273,-3.9313,-3.9392,-3.9418,-3.9481,-3.9451,-3.9482,-3.949,-3.9498,-3.9507,-3.9292,-3.9492,-3.9491,-3.9491,-3.9491,-3.949,0,-3.8953,-3.8978,-3.904,-3.9104,-3.9158,-3.9129,-3.9176,-3.9223,-3.9295,-3.9334,-3.9389,-3.9473,-3.9539,-3.956,-3.9624,-3.967,-3.966,-3.9687,-3.9684,-3.969,-3.953,-3.9505,-3.9695,-3.9695,-3.9695,-3.9695,-3.9695,-3.9695,-3.9063,-3.9164,-3.9168,-3.9285,-3.9308,-3.9388,-3.9418,-3.9456,-3.9488,-3.9583,-3.9638,-3.9652,-3.9684,-3.975,-3.9809,-3.9814,-3.9839,-3.9872,-3.9871,-3.9721,-3.9701,-3.9681,-3.9658,-3.9877,-3.9877,-4.0026,-4.0027,-4.0028]}]]